AP893 Weather Reports


Display with metric or nautical units.
time (UTC)temp
F
wind
direction
speed
MPH
gust
MPH
rain 1hr
in
rain 24hr
in
rain mn
in
humidity
%
barometer
mb
20260831173009 81 313 2.0 9.0 0.00 0.00 0.00 28 1016.3
20260831172009 81 0 1.0 9.0 0.00 0.00 0.00 28 1016.2
20260831165011 78 158 1.0 5.0 0.00 0.00 0.00 32 1015.9
20260831162009 76 124 0.0 5.0 0.00 0.00 0.00 37 1015.9
20260831161010 75 148 0.0 0.0 0.00 0.00 0.00 40 1015.9
20260831160010 72 148 1.0 6.0 0.00 0.00 0.00 43 1015.9
20260831155009 70 119 1.0 6.0 0.00 0.00 0.00 46 1016.0
20260831154009 68 149 1.0 7.0 0.00 0.00 0.00 48 1016.0
20260831152009 66 151 0.0 5.0 0.00 0.00 0.00 53 1015.9
20260831150009 63 137 2.0 7.0 0.00 0.00 0.00 57 1015.7
20260831145009 61 122 1.0 7.0 0.00 0.00 0.00 60 1015.6
20260831144009 60 144 1.0 5.0 0.00 0.00 0.00 63 1015.3
20260831143010 58 127 0.0 5.0 0.00 0.00 0.00 66 1015.3
20260831142010 57 141 0.0 6.0 0.00 0.00 0.00 68 989.9
20260831141010 56 93 0.0 3.0 0.00 0.00 0.00 71 1015.0
20260831140009 56 136 1.0 3.0 0.00 0.00 0.00 72 1014.9
20260831135009 56 212 0.0 0.0 0.00 0.00 0.00 72 1014.9
20260831134009 56 212 0.0 5.0 0.00 0.00 0.00 72 1014.9
20260831133009 56 215 0.0 6.0 0.00 0.00 0.00 74 1014.8
20260831131010 55 196 0.0 0.0 0.00 0.00 0.00 77 1014.7
20260831125009 55 196 0.0 0.0 0.00 0.00 0.00 77 1014.7
20260831124012 55 196 0.0 0.0 0.00 0.00 0.00 77 1014.8
20260831122009 55 196 0.0 0.0 0.00 0.00 0.00 76 1014.7
20260831121009 55 196 0.0 0.0 0.00 0.00 0.00 76 1014.8
20260831115009 56 196 0.0 0.0 0.00 0.00 0.00 74 1014.9
20260831114009 56 196 0.0 0.0 0.00 0.00 0.00 72 1014.9
20260831111009 56 196 0.0 0.0 0.00 0.00 0.00 70 1014.9
20260831110009 56 196 0.0 0.0 0.00 0.00 0.00 70 1014.9
20260831105010 56 196 0.0 0.0 0.00 0.00 0.00 71 1014.8
20260831104009 56 196 0.0 0.0 0.00 0.00 0.00 70 1014.7
20260831101010 57 196 0.0 0.0 0.00 0.00 0.00 68 1014.7
20260831100010 57 196 0.0 0.0 0.00 0.00 0.00 67 1014.8
20260831095009 57 196 0.0 0.0 0.00 0.00 0.00 67 1014.9
20260831094010 57 196 0.0 0.0 0.00 0.00 0.00 66 1014.8
20260831093009 57 196 0.0 0.0 0.00 0.00 0.00 66 1014.8
20260831085010 58 196 0.0 0.0 0.00 0.00 0.00 65 1015.0
20260831084009 58 196 0.0 0.0 0.00 0.00 0.00 64 1015.1
20260831083010 58 196 0.0 0.0 0.00 0.00 0.00 62 1015.2
20260831082009 59 196 0.0 0.0 0.00 0.00 0.00 62 1015.3
20260831081010 59 196 0.0 0.0 0.00 0.00 0.00 60 1015.3
20260831080009 59 196 0.0 0.0 0.00 0.00 0.00 60 1015.5
20260831075010 59 196 0.0 0.0 0.00 0.00 0.00 60 1015.5
20260831074009 59 196 0.0 0.0 0.00 0.00 0.00 60 1015.5
20260831073010 59 196 0.0 3.0 0.00 0.00 0.00 60 1015.6
20260831072010 59 120 0.0 0.0 0.00 0.00 0.00 58 1015.5
20260831071009 59 120 0.0 0.0 0.00 0.00 0.00 57 1015.5
20260831070010 59 120 0.0 0.0 0.00 0.00 0.00 57 1015.5
20260831065010 59 120 0.0 0.0 0.00 0.00 0.00 57 1015.6
20260831064009 59 120 0.0 0.0 0.00 0.00 0.00 56 1015.6
20260831063010 59 120 0.0 0.0 0.00 0.00 0.00 56 1015.7
20260831062009 59 120 0.0 0.0 0.00 0.00 0.00 55 1015.7
20260831061010 60 120 0.0 0.0 0.00 0.00 0.00 54 1015.7
20260831060009 60 120 0.0 0.0 0.00 0.00 0.00 55 1015.8
20260831054009 61 120 0.0 0.0 0.00 0.00 0.00 53 1015.9
20260831053009 62 120 0.0 0.0 0.00 0.00 0.00 52 1016.1
20260831052009 62 120 0.0 5.0 0.00 0.00 0.00 51 1016.2
20260831050009 64 256 0.0 0.0 0.00 0.00 0.00 48 1016.2
20260831045009 64 256 0.0 0.0 0.00 0.00 0.00 48 1016.3
20260831044009 65 256 0.0 0.0 0.00 0.00 0.00 48 1016.3
20260831040010 69 256 0.0 0.0 0.00 0.00 0.00 44 1016.3
20260831035009 70 256 0.0 0.0 0.00 0.00 0.00 41 1016.3
20260831033009 72 256 0.0 0.0 0.00 0.00 0.00 39 1016.2
20260831032010 73 256 0.0 0.0 0.00 0.00 0.00 37 1016.2
20260831031010 73 256 0.0 0.0 0.00 0.00 0.00 34 1016.2
20260831030010 74 256 0.0 0.0 0.00 0.00 0.00 34 1016.3
20260831025010 75 256 0.0 0.0 0.00 0.00 0.00 33 1016.3
20260831024010 76 256 0.0 0.0 0.00 0.00 0.00 32 1016.3
20260831023009 77 256 0.0 0.0 0.00 0.00 0.00 31 1016.3
20260831022010 78 256 0.0 0.0 0.00 0.00 0.00 31 1016.3
20260831021009 78 256 0.0 0.0 0.00 0.00 0.00 29 1016.3
20260831020010 79 256 0.0 0.0 0.00 0.00 0.00 29 1016.3
20260831015010 80 256 0.0 0.0 0.00 0.00 0.00 28 1016.3
20260831014010 80 256 0.0 0.0 0.00 0.00 0.00 28 1016.3
20260831013010 81 256 0.0 0.0 0.00 0.00 0.00 27 1016.4
20260831012010 81 256 0.0 0.0 0.00 0.00 0.00 26 1016.6
20260831011010 82 256 0.0 6.0 0.00 0.00 0.00 25 1016.6
20260831010010 82 24 1.0 7.0 0.00 0.00 0.00 24 1016.6
20260831005010 83 0 0.0 5.0 0.00 0.00 0.00 24 1016.6
20260831004010 84 230 2.0 7.0 0.00 0.00 0.00 22 1016.7
20260831003010 85 254 0.0 7.0 0.00 0.00 0.00 22 1016.7
20260831002010 84 219 0.0 6.0 0.00 0.00 0.00 22 1016.7
20260831001010 85 332 0.0 9.0 0.00 0.00 0.00 22 1016.7
20260831000010 85 267 0.0 7.0 0.00 0.00 0.00 22 1016.8
20260830235010 85 240 3.0 9.0 0.00 0.00 0.00 22 1016.8
20260830234010 85 356 0.0 6.0 0.00 0.00 0.00 22 1016.8
20260830233010 85 271 1.0 9.0 0.00 0.00 0.00 21 1016.9
20260830232009 85 260 1.0 9.0 0.00 0.00 0.00 22 1016.9
20260830231009 86 353 6.0 10.0 0.00 0.00 0.00 21 1017.0
20260830230009 85 289 3.0 7.0 0.00 0.00 0.00 21 1017.0
20260830225010 84 295 3.0 10.0 0.00 0.00 0.00 22 1017.1
20260830223009 84 223 0.0 7.0 0.00 0.00 0.00 23 1017.2
20260830222009 84 322 3.0 9.0 0.00 0.00 0.00 23 1017.2
20260830221010 85 324 2.0 10.0 0.00 0.00 0.00 22 1017.3
20260830215009 86 124 0.0 6.0 0.00 0.00 0.00 21 1017.5
20260830214009 85 148 1.0 8.0 0.00 0.00 0.00 22 1017.8
20260830212010 84 269 0.0 12.0 0.00 0.00 0.00 22 1017.8
20260830210009 85 267 1.0 10.0 0.00 0.00 0.00 21 1017.8
20260830205010 86 350 2.0 15.0 0.00 0.00 0.00 20 1017.8
20260830204009 86 244 2.0 8.0 0.00 0.00 0.00 20 1017.9
20260830202009 85 256 5.0 10.0 0.00 0.00 0.00 21 1017.8
20260830201010 86 266 3.0 10.0 0.00 0.00 0.00 20 1017.7
20260830200010 86 282 2.0 8.0 0.00 0.00 0.00 20 1017.7
20260830195009 86 269 3.0 13.0 0.00 0.00 0.00 20 1017.7
20260830194009 86 315 2.0 12.0 0.00 0.00 0.00 20 1017.7
20260830193010 87 144 2.0 9.0 0.00 0.00 0.00 20 1017.8
20260830192009 87 307 5.0 12.0 0.00 0.00 0.00 20 1017.8
20260830191009 87 292 2.0 8.0 0.00 0.00 0.00 20 1017.8
20260830190009 87 116 1.0 10.0 0.00 0.00 0.00 21 1017.8
20260830185009 87 162 2.0 9.0 0.00 0.00 0.00 21 1017.9
20260830184009 87 79 1.0 10.0 0.00 0.00 0.00 21 1017.9
20260830182009 86 227 0.0 8.0 0.00 0.00 0.00 23 1017.9
20260830180009 85 355 3.0 7.0 0.00 0.00 0.00 24 1017.8
20260830175010 85 154 1.0 8.0 0.00 0.00 0.00 24 1017.7
20260830174010 85 126 0.0 8.0 0.00 0.00 0.00 25 1017.7